Time,TemperatureF,DewpointF,PressureIn,WindDirection,WindDirectionDegrees,WindSpeedMPH,WindSpeedGustMPH,Humidity,HourlyPrecipIn,Conditions,Clouds,dailyrainin,SoftwareType,DateUTC
2013-04-09 00:00:00,60.3,41.6,29.00,SSE,152,0.0,0.0,50,0.00,,SKC,0.00,VWS V14.00,2013-04-09 04:00:00,
2013-04-09 00:02:00,60.3,41.6,29.00,SSE,153,0.0,0.0,50,0.00,,SKC,0.00,VWS V14.00,2013-04-09 04:02:00,
2013-04-09 00:07:00,60.3,41.6,29.00,SSE,153,0.0,0.0,50,0.00,,SKC,0.00,VWS V14.00,2013-04-09 04:07:00,
2013-04-09 00:10:00,60.3,41.6,29.00,SSE,152,0.0,0.0,50,0.00,,SKC,0.00,VWS V14.00,2013-04-09 04:10:00,
2013-04-09 00:17:00,60.1,41.4,29.00,SSE,153,0.0,0.0,50,0.00,,SKC,0.00,VWS V14.00,2013-04-09 04:17:00,
2013-04-09 00:22:00,59.9,41.2,29.00,SSE,152,0.0,0.0,50,0.00,,SKC,0.00,VWS V14.00,2013-04-09 04:22:00,
2013-04-09 00:27:00,59.9,41.2,29.00,SSE,153,0.0,0.0,50,0.00,,SKC,0.00,VWS V14.00,2013-04-09 04:27:00,
2013-04-09 00:32:00,59.5,41.4,29.00,SSE,153,0.0,0.0,51,0.00,,SKC,0.00,VWS V14.00,2013-04-09 04:32:00,
2013-04-09 00:37:00,59.4,41.2,29.00,SSE,152,0.0,0.0,51,0.00,,SKC,0.00,VWS V14.00,2013-04-09 04:37:00,
2013-04-09 00:42:00,59.4,41.2,29.00,SSE,152,0.0,0.0,51,0.00,,SKC,0.00,VWS V14.00,2013-04-09 04:42:00,
2013-04-09 00:47:00,59.2,41.1,29.00,SSE,152,0.0,0.0,51,0.00,,SKC,0.00,VWS V14.00,2013-04-09 04:47:00,
2013-04-09 00:57:00,59.0,40.9,29.00,SSE,152,0.0,0.0,51,0.00,,SKC,0.00,VWS V14.00,2013-04-09 04:57:00,
2013-04-09 01:02:00,58.8,41.2,29.00,SSE,153,0.0,0.0,52,0.00,,SKC,0.00,VWS V14.00,2013-04-09 05:02:00,
2013-04-09 01:07:00,58.6,41.1,29.00,SSE,152,0.0,0.0,52,0.00,,SKC,0.00,VWS V14.00,2013-04-09 05:07:00,
2013-04-09 01:12:00,58.6,41.6,29.00,SSE,153,0.0,0.0,53,0.00,,SKC,0.00,VWS V14.00,2013-04-09 05:12:00,
2013-04-09 01:17:00,58.6,41.1,29.00,SSE,153,0.0,0.0,52,0.00,,SKC,0.00,VWS V14.00,2013-04-09 05:17:00,
2013-04-09 01:22:00,58.5,41.4,29.00,SSE,152,0.0,0.0,53,0.00,,SKC,0.00,VWS V14.00,2013-04-09 05:22:00,
2013-04-09 01:27:00,58.5,41.4,29.00,SSE,153,0.0,0.0,53,0.00,,SKC,0.00,VWS V14.00,2013-04-09 05:27:00,
2013-04-09 01:32:00,58.5,41.4,29.03,SSE,153,0.0,0.0,53,0.00,,SKC,0.00,VWS V14.00,2013-04-09 05:32:00,
2013-04-09 01:37:00,58.3,41.2,29.03,SSE,152,0.0,0.0,53,0.00,,SKC,0.00,VWS V14.00,2013-04-09 05:37:00,
2013-04-09 01:42:00,58.1,41.1,29.03,SSE,152,0.0,0.0,53,0.00,,SKC,0.00,VWS V14.00,2013-04-09 05:42:00,
2013-04-09 01:47:00,58.1,41.1,29.03,SSE,153,0.0,0.0,53,0.00,,SKC,0.00,VWS V14.00,2013-04-09 05:47:00,
2013-04-09 01:52:00,57.9,40.9,29.03,SSE,153,0.0,0.0,53,0.00,,SKC,0.00,VWS V14.00,2013-04-09 05:52:00,
2013-04-09 01:57:00,57.9,41.4,29.03,SSE,152,0.0,0.0,54,0.00,,SKC,0.00,VWS V14.00,2013-04-09 05:57:00,
2013-04-09 02:02:00,57.7,41.2,29.03,SSE,153,0.0,0.0,54,0.00,,SKC,0.00,VWS V14.00,2013-04-09 06:02:00,
2013-04-09 02:07:00,57.6,41.1,29.03,SSE,153,0.0,0.0,54,0.00,,SKC,0.00,VWS V14.00,2013-04-09 06:07:00,
2013-04-09 02:12:00,57.6,41.1,29.03,SSE,153,0.0,0.0,54,0.00,,SKC,0.00,VWS V14.00,2013-04-09 06:12:00,
2013-04-09 02:17:00,57.4,40.9,29.03,SSE,152,0.0,0.0,54,0.00,,SKC,0.00,VWS V14.00,2013-04-09 06:17:00,
2013-04-09 02:23:00,57.4,40.9,29.03,SSE,152,0.0,0.0,54,0.00,,SKC,0.00,VWS V14.00,2013-04-09 06:23:00,
2013-04-09 02:28:00,57.2,40.7,29.03,SSE,153,0.0,0.0,54,0.00,,SKC,0.00,VWS V14.00,2013-04-09 06:28:00,
2013-04-09 02:33:00,57.2,41.2,29.03,SSE,153,0.0,0.0,55,0.00,,SKC,0.00,VWS V14.00,2013-04-09 06:33:00,
2013-04-09 02:38:00,57.0,41.0,29.03,SSE,153,0.0,0.0,55,0.00,,SKC,0.00,VWS V14.00,2013-04-09 06:38:00,
2013-04-09 02:43:00,57.0,41.0,29.03,SSE,153,0.0,0.0,55,0.00,,SKC,0.00,VWS V14.00,2013-04-09 06:43:00,
2013-04-09 02:48:00,56.8,41.3,29.03,SSE,153,0.0,0.0,56,0.00,,SKC,0.00,VWS V14.00,2013-04-09 06:48:00,
2013-04-09 02:53:00,56.8,41.3,29.03,SSE,152,0.0,0.0,56,0.00,,SKC,0.00,VWS V14.00,2013-04-09 06:53:00,
2013-04-09 02:58:00,56.7,41.2,29.03,SSW,195,0.0,0.0,56,0.00,,SKC,0.00,VWS V14.00,2013-04-09 06:58:00,
2013-04-09 03:03:00,56.7,41.2,29.03,South,185,0.0,0.0,56,0.00,,SKC,0.00,VWS V14.00,2013-04-09 07:03:00,
2013-04-09 03:08:00,56.5,41.0,29.03,South,185,0.0,0.0,56,0.00,,SKC,0.00,VWS V14.00,2013-04-09 07:08:00,
2013-04-09 03:13:00,56.3,40.8,29.03,South,185,0.0,0.0,56,0.00,,SKC,0.00,VWS V14.00,2013-04-09 07:13:00,
2013-04-09 03:18:00,56.1,40.7,29.03,South,185,0.0,0.0,56,0.00,,SKC,0.00,VWS V14.00,2013-04-09 07:18:00,
2013-04-09 03:23:00,55.6,40.6,29.03,South,185,0.0,0.0,57,0.00,,SKC,0.00,VWS V14.00,2013-04-09 07:23:00,
2013-04-09 03:28:00,55.2,40.7,29.03,South,185,0.0,0.0,58,0.00,,SKC,0.00,VWS V14.00,2013-04-09 07:28:00,
2013-04-09 03:33:00,55.2,40.7,29.03,South,185,0.0,0.0,58,0.00,,SKC,0.00,VWS V14.00,2013-04-09 07:33:00,
2013-04-09 03:38:00,55.0,40.5,29.03,South,185,0.0,0.0,58,0.00,,SKC,0.00,VWS V14.00,2013-04-09 07:38:00,
2013-04-09 03:43:00,55.0,41.0,29.03,South,185,0.0,0.0,59,0.00,,SKC,0.00,VWS V14.00,2013-04-09 07:43:00,
2013-04-09 03:48:00,55.0,41.0,29.03,South,185,0.0,0.0,59,0.00,,SKC,0.00,VWS V14.00,2013-04-09 07:48:00,
2013-04-09 03:53:00,54.9,40.8,29.03,South,185,0.0,0.0,59,0.00,,SKC,0.00,VWS V14.00,2013-04-09 07:53:00,
2013-04-09 03:58:00,54.9,40.8,29.03,South,185,0.0,0.0,59,0.00,,SKC,0.00,VWS V14.00,2013-04-09 07:58:00,
2013-04-09 04:03:00,54.5,40.5,29.03,South,185,0.0,0.0,59,0.00,,SKC,0.00,VWS V14.00,2013-04-09 08:03:00,
2013-04-09 04:08:00,54.3,40.8,29.03,South,185,0.0,0.0,60,0.00,,SKC,0.00,VWS V14.00,2013-04-09 08:08:00,
2013-04-09 04:13:00,54.3,40.8,29.03,South,185,0.0,0.0,60,0.00,,SKC,0.00,VWS V14.00,2013-04-09 08:13:00,
2013-04-09 04:18:00,54.1,40.6,29.03,South,185,0.0,0.0,60,0.00,,SKC,0.00,VWS V14.00,2013-04-09 08:18:00,
2013-04-09 04:23:00,54.3,40.8,29.03,South,185,0.0,0.0,60,0.00,,SKC,0.00,VWS V14.00,2013-04-09 08:23:00,
2013-04-09 04:28:00,54.3,41.2,29.03,South,185,0.0,0.0,61,0.00,,SKC,0.00,VWS V14.00,2013-04-09 08:28:00,
2013-04-09 04:33:00,54.3,40.8,29.03,South,185,0.0,0.0,60,0.00,,SKC,0.00,VWS V14.00,2013-04-09 08:33:00,
2013-04-09 04:38:00,54.3,41.2,29.03,South,185,0.0,0.0,61,0.00,,SKC,0.00,VWS V14.00,2013-04-09 08:38:00,
2013-04-09 04:43:00,54.3,41.2,29.03,South,185,0.0,0.0,61,0.00,,SKC,0.00,VWS V14.00,2013-04-09 08:43:00,
2013-04-09 04:48:00,54.1,41.0,29.03,South,185,0.0,0.0,61,0.00,,SKC,0.00,VWS V14.00,2013-04-09 08:48:00,
2013-04-09 04:53:00,54.1,41.0,29.03,South,185,0.0,0.0,61,0.00,,SKC,0.00,VWS V14.00,2013-04-09 08:53:00,
2013-04-09 04:58:00,54.0,40.4,29.03,South,185,0.0,0.0,60,0.00,,SKC,0.00,VWS V14.00,2013-04-09 08:58:00,
2013-04-09 05:03:00,53.8,40.7,29.03,South,185,0.0,0.0,61,0.00,,SKC,0.00,VWS V14.00,2013-04-09 09:03:00,
2013-04-09 05:08:00,53.6,40.5,29.03,South,185,0.0,0.0,61,0.00,,SKC,0.00,VWS V14.00,2013-04-09 09:08:00,
2013-04-09 05:13:00,53.6,40.5,29.03,South,185,0.0,0.0,61,0.00,,SKC,0.00,VWS V14.00,2013-04-09 09:13:00,
2013-04-09 05:18:00,53.6,40.5,29.03,South,185,0.0,0.0,61,0.00,,SKC,0.00,VWS V14.00,2013-04-09 09:18:00,
2013-04-09 05:23:00,53.6,40.5,29.03,South,185,0.0,0.0,61,0.00,,SKC,0.00,VWS V14.00,2013-04-09 09:23:00,
2013-04-09 05:28:00,53.4,40.7,29.03,South,185,0.0,0.0,62,0.00,,SKC,0.00,VWS V14.00,2013-04-09 09:28:00,
2013-04-09 05:33:00,53.4,40.7,29.03,South,185,0.0,0.0,62,0.00,,SKC,0.00,VWS V14.00,2013-04-09 09:33:00,
2013-04-09 05:38:00,53.2,40.6,29.03,South,185,0.0,0.0,62,0.00,,SKC,0.00,VWS V14.00,2013-04-09 09:38:00,
2013-04-09 05:43:00,53.1,40.4,29.03,South,185,0.0,0.0,62,0.00,,SKC,0.00,VWS V14.00,2013-04-09 09:43:00,
2013-04-09 05:48:00,52.9,40.2,29.06,South,185,0.0,0.0,62,0.00,,SKC,0.00,VWS V14.00,2013-04-09 09:48:00,
2013-04-09 05:53:00,52.9,40.2,29.06,South,185,0.0,0.0,62,0.00,,SKC,0.00,VWS V14.00,2013-04-09 09:53:00,
2013-04-09 05:58:00,52.7,40.5,29.06,South,185,0.0,0.0,63,0.00,,SKC,0.00,VWS V14.00,2013-04-09 09:58:00,
2013-04-09 06:03:00,52.7,40.5,29.06,South,185,0.0,0.0,63,0.00,,SKC,0.00,VWS V14.00,2013-04-09 10:03:00,
2013-04-09 06:08:00,52.7,40.5,29.06,South,185,0.0,0.0,63,0.00,,SKC,0.00,VWS V14.00,2013-04-09 10:08:00,
2013-04-09 06:13:00,52.5,40.3,29.06,South,185,0.0,0.0,63,0.00,,SKC,0.00,VWS V14.00,2013-04-09 10:13:00,
2013-04-09 06:18:00,52.7,40.5,29.06,South,185,0.0,0.0,63,0.00,,SKC,0.00,VWS V14.00,2013-04-09 10:18:00,
2013-04-09 06:23:00,52.5,40.3,29.06,South,185,0.0,0.0,63,0.00,,SKC,0.00,VWS V14.00,2013-04-09 10:23:00,
2013-04-09 06:28:00,52.5,40.3,29.06,South,185,0.0,0.0,63,0.00,,SKC,0.00,VWS V14.00,2013-04-09 10:28:00,
2013-04-09 06:33:00,52.5,40.3,29.06,South,185,0.0,0.0,63,0.00,,SKC,0.00,VWS V14.00,2013-04-09 10:33:00,
2013-04-09 06:38:00,52.7,40.5,29.06,South,185,0.0,0.0,63,0.00,,SKC,0.00,VWS V14.00,2013-04-09 10:38:00,
2013-04-09 06:43:00,52.7,40.9,29.06,South,185,0.0,0.0,64,0.00,,SKC,0.00,VWS V14.00,2013-04-09 10:43:00,
2013-04-09 06:48:00,52.9,41.0,29.06,South,185,0.0,0.0,64,0.00,,SKC,0.00,VWS V14.00,2013-04-09 10:48:00,
2013-04-09 06:53:00,53.1,41.6,29.06,South,185,0.0,0.0,65,0.00,,SKC,0.00,VWS V14.00,2013-04-09 10:53:00,
2013-04-09 06:59:00,53.1,41.6,29.06,South,185,0.0,0.0,65,0.00,,SKC,0.00,VWS V14.00,2013-04-09 10:59:00,
2013-04-09 07:09:00,53.2,41.8,29.06,South,185,0.0,0.0,65,0.00,,SKC,0.00,VWS V14.00,2013-04-09 11:09:00,
2013-04-09 07:19:00,53.2,41.8,29.09,South,185,0.0,0.0,65,0.00,,SKC,0.00,VWS V14.00,2013-04-09 11:19:00,
2013-04-09 07:24:00,53.4,42.0,29.09,South,185,0.0,0.0,65,0.00,,SKC,0.00,VWS V14.00,2013-04-09 11:24:00,
2013-04-09 07:29:00,53.4,42.0,29.09,South,185,0.0,0.0,65,0.00,,SKC,0.00,VWS V14.00,2013-04-09 11:29:00,
2013-04-09 07:34:00,53.6,42.1,29.09,South,185,0.0,0.0,65,0.00,,SKC,0.00,VWS V14.00,2013-04-09 11:34:00,
2013-04-09 07:39:00,53.8,42.3,29.09,South,185,0.0,0.0,65,0.00,,SKC,0.00,VWS V14.00,2013-04-09 11:39:00,
2013-04-09 07:44:00,54.0,42.9,29.09,South,185,0.0,0.0,66,0.00,,SKC,0.00,VWS V14.00,2013-04-09 11:44:00,
2013-04-09 07:49:00,54.1,43.0,29.09,South,185,0.0,0.0,66,0.00,,SKC,0.00,VWS V14.00,2013-04-09 11:49:00,
2013-04-09 07:54:00,54.1,43.0,29.09,South,185,0.0,0.0,66,0.00,,SKC,0.00,VWS V14.00,2013-04-09 11:54:00,
2013-04-09 07:59:00,54.1,43.4,29.09,South,185,0.0,0.0,67,0.00,,SKC,0.00,VWS V14.00,2013-04-09 11:59:00,
2013-04-09 08:04:00,54.1,43.4,29.09,South,185,0.0,0.0,67,0.00,,SKC,0.00,VWS V14.00,2013-04-09 12:04:00,
2013-04-09 08:09:00,54.3,43.6,29.09,South,185,0.0,0.0,67,0.00,,SKC,0.00,VWS V14.00,2013-04-09 12:09:00,
2013-04-09 08:14:00,54.3,43.6,29.09,South,185,0.0,0.0,67,0.00,,SKC,0.00,VWS V14.00,2013-04-09 12:14:00,
2013-04-09 08:20:00,54.7,44.0,29.12,South,185,0.0,0.0,67,0.00,,SKC,0.00,VWS V14.00,2013-04-09 12:20:00,
2013-04-09 08:25:00,55.0,44.3,29.12,South,185,0.0,0.0,67,0.00,,SKC,0.00,VWS V14.00,2013-04-09 12:25:00,
2013-04-09 08:30:00,55.4,44.6,29.12,South,185,0.0,0.0,67,0.00,,SKC,0.00,VWS V14.00,2013-04-09 12:30:00,
2013-04-09 08:35:00,55.9,45.5,29.12,South,185,0.0,0.0,68,0.00,,SKC,0.00,VWS V14.00,2013-04-09 12:35:00,
2013-04-09 08:40:00,56.5,46.1,29.12,South,185,0.0,0.0,68,0.00,,SKC,0.00,VWS V14.00,2013-04-09 12:40:00,
2013-04-09 08:50:00,57.4,46.9,29.12,South,185,0.0,0.0,68,0.00,,SKC,0.00,VWS V14.00,2013-04-09 12:50:00,
2013-04-09 08:55:00,57.7,47.3,29.12,South,185,0.0,0.0,68,0.00,,SKC,0.00,VWS V14.00,2013-04-09 12:55:00,
2013-04-09 09:00:00,58.1,47.6,29.12,South,185,0.0,0.0,68,0.00,,SKC,0.00,VWS V14.00,2013-04-09 13:00:00,
2013-04-09 09:05:00,58.3,47.8,29.12,South,185,0.0,0.0,68,0.00,,SKC,0.00,VWS V14.00,2013-04-09 13:05:00,
2013-04-09 09:10:00,58.5,47.6,29.12,South,185,0.0,0.0,67,0.00,,SKC,0.00,VWS V14.00,2013-04-09 13:10:00,
2013-04-09 09:15:00,59.0,48.1,29.12,South,185,0.0,0.0,67,0.00,,SKC,0.00,VWS V14.00,2013-04-09 13:15:00,
2013-04-09 09:20:00,59.4,48.4,29.12,South,185,0.0,0.0,67,0.00,,SKC,0.00,VWS V14.00,2013-04-09 13:20:00,
2013-04-09 09:25:00,59.7,48.8,29.12,South,185,0.0,0.0,67,0.00,,SKC,0.00,VWS V14.00,2013-04-09 13:25:00,
2013-04-09 09:30:00,60.3,49.3,29.12,South,185,0.0,0.0,67,0.00,,SKC,0.00,VWS V14.00,2013-04-09 13:30:00,
2013-04-09 09:35:00,61.0,49.5,29.12,South,179,0.0,0.0,66,0.00,,SKC,0.00,VWS V14.00,2013-04-09 13:35:00,
2013-04-09 09:40:00,61.5,50.1,29.12,SSE,151,0.0,0.0,66,0.00,,SKC,0.00,VWS V14.00,2013-04-09 13:40:00,
2013-04-09 09:45:00,61.9,50.4,29.12,SSE,151,0.0,0.0,66,0.00,,SKC,0.00,VWS V14.00,2013-04-09 13:45:00,
2013-04-09 09:50:00,62.4,50.9,29.12,SSE,151,0.0,0.0,66,0.00,,SKC,0.00,VWS V14.00,2013-04-09 13:50:00,
2013-04-09 09:55:00,62.8,50.8,29.12,SSE,151,0.0,0.0,65,0.00,,SKC,0.00,VWS V14.00,2013-04-09 13:55:00,
2013-04-09 10:00:00,63.7,51.7,29.12,SSE,151,0.0,0.0,65,0.00,,SKC,0.00,VWS V14.00,2013-04-09 14:00:00,
2013-04-09 10:05:00,64.6,52.1,29.12,SSE,151,0.0,0.0,64,0.00,,SKC,0.00,VWS V14.00,2013-04-09 14:05:00,
2013-04-09 10:10:00,65.3,52.0,29.12,SSE,151,0.0,0.0,62,0.00,,SKC,0.00,VWS V14.00,2013-04-09 14:10:00,
2013-04-09 10:15:00,66.0,52.6,29.12,SSE,150,0.0,0.0,62,0.00,,SKC,0.00,VWS V14.00,2013-04-09 14:15:00,
2013-04-09 10:20:00,66.0,52.6,29.12,SSE,151,0.0,0.0,62,0.00,,SKC,0.00,VWS V14.00,2013-04-09 14:20:00,
2013-04-09 10:26:00,66.4,52.5,29.12,SSE,151,0.0,0.0,61,0.00,,SKC,0.00,VWS V14.00,2013-04-09 14:26:00,
2013-04-09 10:31:00,66.7,52.4,29.12,SSE,151,0.0,0.0,60,0.00,,SKC,0.00,VWS V14.00,2013-04-09 14:31:00,
2013-04-09 10:36:00,67.3,52.0,29.12,North,3,0.0,0.0,58,0.00,,SKC,0.00,VWS V14.00,2013-04-09 14:36:00,
2013-04-09 10:41:00,67.8,52.0,29.12,NNE,29,0.0,0.0,57,0.00,,SKC,0.00,VWS V14.00,2013-04-09 14:41:00,
2013-04-09 10:46:00,68.5,52.7,29.12,NNE,28,0.0,0.0,57,0.00,,SKC,0.00,VWS V14.00,2013-04-09 14:46:00,
2013-04-09 10:51:00,69.1,53.2,29.12,NNE,20,0.0,0.0,57,0.00,,SKC,0.00,VWS V14.00,2013-04-09 14:51:00,
2013-04-09 10:56:00,69.6,53.2,29.12,North,357,0.0,0.0,56,0.00,,SKC,0.00,VWS V14.00,2013-04-09 14:56:00,
2013-04-09 11:01:00,70.0,53.1,29.12,NNE,21,0.0,0.0,55,0.00,,SKC,0.00,VWS V14.00,2013-04-09 15:01:00,
2013-04-09 11:06:00,70.3,52.4,29.12,NE,37,0.0,3.6,53,0.00,,SKC,0.00,VWS V14.00,2013-04-09 15:06:00,
2013-04-09 11:11:00,70.7,52.8,29.12,NE,39,2.7,2.7,53,0.00,,SKC,0.00,VWS V14.00,2013-04-09 15:11:00,
2013-04-09 11:16:00,71.1,52.6,29.12,NE,45,0.0,3.1,52,0.00,,SKC,0.00,VWS V14.00,2013-04-09 15:16:00,
2013-04-09 11:21:00,71.2,52.7,29.12,NNE,20,0.0,0.0,52,0.00,,SKC,0.00,VWS V14.00,2013-04-09 15:21:00,
2013-04-09 11:26:00,71.6,52.5,29.12,North,9,0.0,0.0,51,0.00,,SKC,0.00,VWS V14.00,2013-04-09 15:26:00,
2013-04-09 11:31:00,72.3,52.7,29.12,North,353,0.0,0.0,50,0.00,,SKC,0.00,VWS V14.00,2013-04-09 15:31:00,
2013-04-09 11:36:00,72.9,52.0,29.12,ENE,65,0.0,2.7,48,0.00,,SKC,0.00,VWS V14.00,2013-04-09 15:36:00,
2013-04-09 11:46:00,73.9,53.0,29.12,SW,221,0.0,4.0,48,0.00,,SKC,0.00,VWS V14.00,2013-04-09 15:46:00,
2013-04-09 11:51:00,74.3,53.4,29.12,NE,36,0.0,0.0,48,0.00,,SKC,0.00,VWS V14.00,2013-04-09 15:51:00,
2013-04-09 11:56:00,74.8,53.3,29.12,WNW,291,0.0,3.1,47,0.00,,SKC,0.00,VWS V14.00,2013-04-09 15:56:00,
2013-04-09 12:01:00,75.4,53.8,29.12,SW,224,0.0,0.0,47,0.00,,SKC,0.00,VWS V14.00,2013-04-09 16:01:00,
2013-04-09 12:06:00,75.7,53.5,29.12,SSW,201,3.8,5.4,46,0.00,,SKC,0.00,VWS V14.00,2013-04-09 16:06:00,
2013-04-09 12:11:00,76.3,54.0,29.12,WSW,239,0.0,2.7,46,0.00,,SKC,0.00,VWS V14.00,2013-04-09 16:11:00,
2013-04-09 12:16:00,76.6,53.1,29.12,NW,318,4.8,7.6,44,0.00,,SKC,0.00,VWS V14.00,2013-04-09 16:16:00,
2013-04-09 12:21:00,77.0,53.4,29.12,SSW,213,3.2,4.0,44,0.00,,SKC,0.00,VWS V14.00,2013-04-09 16:21:00,
2013-04-09 12:26:00,77.4,53.8,29.12,WSW,240,3.8,5.4,44,0.00,,SKC,0.00,VWS V14.00,2013-04-09 16:26:00,
2013-04-09 12:31:00,77.7,53.5,29.12,SW,235,0.0,4.0,43,0.00,,SKC,0.00,VWS V14.00,2013-04-09 16:31:00,
2013-04-09 12:37:00,78.3,54.0,29.12,SW,227,4.8,6.3,43,0.00,,SKC,0.00,VWS V14.00,2013-04-09 16:37:00,
2013-04-09 12:42:00,78.6,54.3,29.12,West,280,0.0,3.1,43,0.00,,SKC,0.00,VWS V14.00,2013-04-09 16:42:00,
2013-04-09 12:50:00,79.3,53.6,29.12,West,259,0.0,4.9,41,0.00,,SKC,0.00,VWS V14.00,2013-04-09 16:50:00,
2013-04-09 12:57:00,79.7,53.9,29.12,SSW,213,6.4,7.6,41,0.00,,SKC,0.00,VWS V14.00,2013-04-09 16:57:00,
2013-04-09 13:02:00,80.1,54.3,29.12,SW,219,0.0,3.1,41,0.00,,SKC,0.00,VWS V14.00,2013-04-09 17:02:00,
2013-04-09 13:10:00,80.6,53.4,29.12,WSW,243,3.2,10.1,39,0.00,,SKC,0.00,VWS V14.00,2013-04-09 17:10:00,
2013-04-09 13:17:00,80.4,53.2,29.12,NW,316,0.0,6.3,39,0.00,,SKC,0.00,VWS V14.00,2013-04-09 17:17:00,
2013-04-09 13:22:00,80.8,53.5,29.12,NNW,327,4.8,8.1,39,0.00,,SKC,0.00,VWS V14.00,2013-04-09 17:22:00,
2013-04-09 13:27:00,81.0,53.0,29.12,SW,227,3.2,8.1,38,0.00,,SKC,0.00,VWS V14.00,2013-04-09 17:27:00,
2013-04-09 13:32:00,81.3,53.3,29.09,West,272,2.7,3.6,38,0.00,,SKC,0.00,VWS V14.00,2013-04-09 17:32:00,
2013-04-09 13:37:00,81.5,52.7,29.09,WSW,257,0.0,6.3,37,0.00,,SKC,0.00,VWS V14.00,2013-04-09 17:37:00,
2013-04-09 13:42:00,81.9,53.1,29.09,SW,221,5.9,5.9,37,0.00,,SKC,0.00,VWS V14.00,2013-04-09 17:42:00,
2013-04-09 13:47:00,82.4,52.8,29.09,NW,322,3.2,6.3,36,0.00,,SKC,0.00,VWS V14.00,2013-04-09 17:47:00,
2013-04-09 13:52:00,82.9,54.0,29.09,WSW,245,6.4,6.4,37,0.00,,SKC,0.00,VWS V14.00,2013-04-09 17:52:00,
2013-04-09 14:00:00,83.5,53.8,29.09,SW,234,0.0,6.3,36,0.00,,SKC,0.00,VWS V14.00,2013-04-09 18:00:00,
2013-04-09 14:07:00,84.2,52.8,29.09,SW,235,7.0,7.0,34,0.00,,SKC,0.00,VWS V14.00,2013-04-09 18:07:00,
2013-04-09 14:12:00,84.2,52.8,29.09,SW,233,3.2,5.4,34,0.00,,SKC,0.00,VWS V14.00,2013-04-09 18:12:00,
2013-04-09 14:17:00,84.6,53.1,29.09,WSW,240,7.0,7.0,34,0.00,,SKC,0.00,VWS V14.00,2013-04-09 18:17:00,
2013-04-09 14:22:00,84.6,52.3,29.09,NW,325,6.4,6.4,33,0.00,,SKC,0.00,VWS V14.00,2013-04-09 18:22:00,
2013-04-09 14:27:00,84.0,51.0,29.09,NW,324,3.2,10.1,32,0.00,,SKC,0.00,VWS V14.00,2013-04-09 18:27:00,
2013-04-09 14:33:00,84.0,51.8,29.06,WSW,245,7.0,7.0,33,0.00,,SKC,0.00,VWS V14.00,2013-04-09 18:33:00,
2013-04-09 14:38:00,84.6,52.3,29.06,WSW,241,0.0,5.8,33,0.00,,SKC,0.00,VWS V14.00,2013-04-09 18:38:00,
2013-04-09 14:43:00,85.1,52.0,29.06,WSW,252,0.0,5.4,32,0.00,,SKC,0.00,VWS V14.00,2013-04-09 18:43:00,
2013-04-09 14:48:00,85.5,52.3,29.06,SW,236,4.8,5.4,32,0.00,,SKC,0.00,VWS V14.00,2013-04-09 18:48:00,
2013-04-09 14:53:00,85.8,52.6,29.06,WSW,237,4.8,6.3,32,0.00,,SKC,0.00,VWS V14.00,2013-04-09 18:53:00,
2013-04-09 14:58:00,86.4,51.3,29.06,SW,229,3.2,6.3,30,0.00,,SKC,0.00,VWS V14.00,2013-04-09 18:58:00,
2013-04-09 15:03:00,86.7,52.5,29.06,South,169,3.8,3.8,31,0.00,,SKC,0.00,VWS V14.00,2013-04-09 19:03:00,
2013-04-09 15:08:00,86.9,52.7,29.06,WSW,242,0.0,5.4,31,0.00,,SKC,0.00,VWS V14.00,2013-04-09 19:08:00,
2013-04-09 15:13:00,86.2,51.1,29.06,South,177,3.2,8.1,30,0.00,,SKC,0.00,VWS V14.00,2013-04-09 19:13:00,
2013-04-09 15:18:00,85.8,50.8,29.06,SW,215,0.0,8.1,30,0.00,,SKC,0.00,VWS V14.00,2013-04-09 19:18:00,
2013-04-09 15:23:00,85.6,50.7,29.06,SW,231,2.7,6.7,30,0.00,,SKC,0.00,VWS V14.00,2013-04-09 19:23:00,
2013-04-09 15:28:00,85.8,50.8,29.06,NW,308,0.0,7.2,30,0.00,,SKC,0.00,VWS V14.00,2013-04-09 19:28:00,
2013-04-09 15:33:00,86.0,51.0,29.06,WSW,244,3.2,5.8,30,0.00,,SKC,0.00,VWS V14.00,2013-04-09 19:33:00,
2013-04-09 15:38:00,86.2,51.1,29.06,NW,309,6.4,6.4,30,0.00,,SKC,0.00,VWS V14.00,2013-04-09 19:38:00,
2013-04-09 15:48:00,86.0,51.0,29.03,SW,236,4.8,8.3,30,0.00,,SKC,0.00,VWS V14.00,2013-04-09 19:48:00,
2013-04-09 15:53:00,85.8,50.8,29.03,WSW,244,6.4,6.4,30,0.00,,SKC,0.00,VWS V14.00,2013-04-09 19:53:00,
2013-04-09 15:58:00,85.6,50.7,29.03,SW,235,3.8,6.3,30,0.00,,SKC,0.00,VWS V14.00,2013-04-09 19:58:00,
2013-04-09 16:03:00,85.3,50.4,29.03,NW,309,3.2,8.7,30,0.00,,SKC,0.00,VWS V14.00,2013-04-09 20:03:00,
2013-04-09 16:08:00,84.6,49.8,29.03,NNW,343,6.4,8.7,30,0.00,,SKC,0.00,VWS V14.00,2013-04-09 20:08:00,
2013-04-09 16:13:00,84.2,49.4,29.03,WNW,284,3.2,8.7,30,0.00,,SKC,0.00,VWS V14.00,2013-04-09 20:13:00,
2013-04-09 16:18:00,84.2,49.4,29.03,West,278,0.0,8.7,30,0.00,,SKC,0.00,VWS V14.00,2013-04-09 20:18:00,
2013-04-09 16:23:00,84.4,49.6,29.03,West,270,2.7,7.2,30,0.00,,SKC,0.00,VWS V14.00,2013-04-09 20:23:00,
2013-04-09 16:28:00,84.4,49.6,29.03,SSW,210,4.3,7.2,30,0.00,,SKC,0.00,VWS V14.00,2013-04-09 20:28:00,
2013-04-09 16:33:00,84.2,49.4,29.03,SW,235,0.0,7.2,30,0.00,,SKC,0.00,VWS V14.00,2013-04-09 20:33:00,
2013-04-09 16:38:00,84.2,49.4,29.03,SSW,205,2.7,7.2,30,0.00,,SKC,0.00,VWS V14.00,2013-04-09 20:38:00,
2013-04-09 16:43:00,84.4,49.6,29.03,SSW,213,0.0,4.0,30,0.00,,SKC,0.00,VWS V14.00,2013-04-09 20:43:00,
2013-04-09 16:48:00,84.2,49.4,29.00,NW,324,4.8,7.2,30,0.00,,SKC,0.00,VWS V14.00,2013-04-09 20:48:00,
2013-04-09 16:53:00,83.7,49.0,29.00,NNW,335,3.8,6.3,30,0.00,,SKC,0.00,VWS V14.00,2013-04-09 20:53:00,
2013-04-09 16:58:00,83.5,49.7,29.00,WSW,256,0.0,6.3,31,0.00,,SKC,0.00,VWS V14.00,2013-04-09 20:58:00,
2013-04-09 17:09:00,83.5,49.7,29.00,SW,219,0.0,5.8,31,0.00,,SKC,0.00,VWS V14.00,2013-04-09 21:09:00,
2013-04-09 17:14:00,83.7,49.8,29.00,SW,226,0.0,3.6,31,0.00,,SKC,0.00,VWS V14.00,2013-04-09 21:14:00,
2013-04-09 17:19:00,83.8,50.0,29.00,NNW,335,0.0,7.6,31,0.00,,SKC,0.00,VWS V14.00,2013-04-09 21:19:00,
2013-04-09 17:29:00,83.8,50.0,29.00,SW,225,3.2,4.0,31,0.00,,SKC,0.00,VWS V14.00,2013-04-09 21:29:00,
2013-04-09 17:34:00,83.8,50.0,29.00,SW,223,4.3,4.9,31,0.00,,SKC,0.00,VWS V14.00,2013-04-09 21:34:00,
2013-04-09 17:39:00,83.5,49.7,29.00,WNW,297,5.9,5.9,31,0.00,,SKC,0.00,VWS V14.00,2013-04-09 21:39:00,
2013-04-09 17:44:00,83.3,49.5,29.00,WSW,239,3.8,6.3,31,0.00,,SKC,0.00,VWS V14.00,2013-04-09 21:44:00,
2013-04-09 17:49:00,82.9,49.2,29.00,West,278,0.0,6.3,31,0.00,,SKC,0.00,VWS V14.00,2013-04-09 21:49:00,
2013-04-09 17:55:00,82.8,49.1,29.00,NNW,334,8.6,8.6,31,0.00,,SKC,0.00,VWS V14.00,2013-04-09 21:55:00,
2013-04-09 18:00:00,82.2,48.6,29.00,SW,236,3.8,7.2,31,0.00,,SKC,0.00,VWS V14.00,2013-04-09 22:00:00,
2013-04-09 18:05:00,81.5,48.8,29.00,WSW,250,0.0,5.4,32,0.00,,SKC,0.00,VWS V14.00,2013-04-09 22:05:00,
2013-04-09 18:10:00,81.1,47.7,29.00,WSW,246,3.2,3.6,31,0.00,,SKC,0.00,VWS V14.00,2013-04-09 22:10:00,
2013-04-09 18:15:00,80.6,48.0,29.00,SW,225,3.8,5.4,32,0.00,,SKC,0.00,VWS V14.00,2013-04-09 22:15:00,
2013-04-09 18:20:00,80.2,47.7,29.00,SW,236,0.0,0.0,32,0.00,,SKC,0.00,VWS V14.00,2013-04-09 22:20:00,
2013-04-09 18:25:00,80.1,47.6,29.00,North,7,0.0,0.0,32,0.00,,SKC,0.00,VWS V14.00,2013-04-09 22:25:00,
2013-04-09 18:30:00,79.9,47.4,29.00,WSW,241,0.0,0.0,32,0.00,,SKC,0.00,VWS V14.00,2013-04-09 22:30:00,
2013-04-09 18:35:00,79.7,47.3,29.00,SW,228,0.0,3.1,32,0.00,,SKC,0.00,VWS V14.00,2013-04-09 22:35:00,
2013-04-09 18:40:00,79.3,47.8,29.00,SW,223,0.0,0.0,33,0.00,,SKC,0.00,VWS V14.00,2013-04-09 22:40:00,
2013-04-09 18:45:00,79.3,47.8,29.00,SW,223,0.0,0.0,33,0.00,,SKC,0.00,VWS V14.00,2013-04-09 22:45:00,
2013-04-09 18:50:00,79.3,47.8,29.00,SW,221,0.0,0.0,33,0.00,,SKC,0.00,VWS V14.00,2013-04-09 22:50:00,
2013-04-09 18:55:00,79.2,47.6,29.00,WSW,240,0.0,0.0,33,0.00,,SKC,0.00,VWS V14.00,2013-04-09 22:55:00,
2013-04-09 19:00:00,79.0,47.5,29.00,SSE,164,0.0,0.0,33,0.00,,SKC,0.00,VWS V14.00,2013-04-09 23:00:00,
2013-04-09 19:05:00,78.8,47.3,29.00,SSE,155,0.0,0.0,33,0.00,,SKC,0.00,VWS V14.00,2013-04-09 23:05:00,
2013-04-09 19:10:00,78.8,47.3,29.00,WSW,239,0.0,0.0,33,0.00,,SKC,0.00,VWS V14.00,2013-04-09 23:10:00,
2013-04-09 19:15:00,78.6,47.9,29.00,SSW,199,0.0,2.7,34,0.00,,SKC,0.00,VWS V14.00,2013-04-09 23:15:00,
2013-04-09 19:20:00,78.4,47.8,29.00,SW,235,0.0,0.0,34,0.00,,SKC,0.00,VWS V14.00,2013-04-09 23:20:00,
2013-04-09 19:25:00,78.3,47.6,29.00,SW,236,0.0,0.0,34,0.00,,SKC,0.00,VWS V14.00,2013-04-09 23:25:00,
2013-04-09 19:30:00,77.9,47.3,29.00,SW,236,0.0,0.0,34,0.00,,SKC,0.00,VWS V14.00,2013-04-09 23:30:00,
2013-04-09 19:35:00,77.5,47.0,28.97,SSW,208,0.0,0.0,34,0.00,,SKC,0.00,VWS V14.00,2013-04-09 23:35:00,
2013-04-09 19:40:00,77.2,46.7,28.97,SSW,206,0.0,0.0,34,0.00,,SKC,0.00,VWS V14.00,2013-04-09 23:40:00,
2013-04-09 19:45:00,76.8,47.1,28.97,SSW,212,0.0,0.0,35,0.00,,SKC,0.00,VWS V14.00,2013-04-09 23:45:00,
2013-04-09 19:50:00,76.3,46.7,28.97,SSW,205,0.0,0.0,35,0.00,,SKC,0.00,VWS V14.00,2013-04-09 23:50:00,
2013-04-09 19:55:00,76.1,46.5,28.97,SSW,205,0.0,0.0,35,0.00,,SKC,0.00,VWS V14.00,2013-04-09 23:55:00,
2013-04-09 20:00:00,75.7,46.2,28.97,SSW,205,0.0,0.0,35,0.00,,SKC,0.00,VWS V14.00,2013-04-10 00:00:00,
2013-04-09 20:05:00,75.2,46.4,28.97,South,188,0.0,0.0,36,0.00,,SKC,0.00,VWS V14.00,2013-04-10 00:05:00,
2013-04-09 20:10:00,74.8,46.1,28.97,South,185,0.0,0.0,36,0.00,,SKC,0.00,VWS V14.00,2013-04-10 00:10:00,
2013-04-09 20:15:00,74.5,45.8,28.97,SSE,148,0.0,0.0,36,0.00,,SKC,0.00,VWS V14.00,2013-04-10 00:15:00,
2013-04-09 20:20:00,73.9,45.3,28.94,SSE,149,0.0,0.0,36,0.00,,SKC,0.00,VWS V14.00,2013-04-10 00:20:00,
2013-04-09 20:25:00,73.2,46.1,28.94,SSE,148,0.0,0.0,38,0.00,,SKC,0.00,VWS V14.00,2013-04-10 00:25:00,
2013-04-09 20:30:00,73.0,46.0,28.94,SSE,148,0.0,0.0,38,0.00,,SKC,0.00,VWS V14.00,2013-04-10 00:30:00,
2013-04-09 20:35:00,72.7,45.6,28.97,SSE,148,0.0,0.0,38,0.00,,SKC,0.00,VWS V14.00,2013-04-10 00:35:00,
2013-04-09 20:40:00,72.5,45.5,28.97,SSE,148,0.0,0.0,38,0.00,,SKC,0.00,VWS V14.00,2013-04-10 00:40:00,
2013-04-09 20:45:00,72.0,45.7,28.97,SSE,149,0.0,0.0,39,0.00,,SKC,0.00,VWS V14.00,2013-04-10 00:45:00,
2013-04-09 20:50:00,71.2,45.7,28.97,SE,134,0.0,0.0,40,0.00,,SKC,0.00,VWS V14.00,2013-04-10 00:50:00,
2013-04-09 20:55:00,70.9,46.0,28.97,SE,134,0.0,0.0,41,0.00,,SKC,0.00,VWS V14.00,2013-04-10 00:55:00,
2013-04-09 21:00:00,70.5,45.7,28.97,SE,135,0.0,0.0,41,0.00,,SKC,0.00,VWS V14.00,2013-04-10 01:00:00,
2013-04-09 21:05:00,70.3,46.2,28.97,NW,313,0.0,0.0,42,0.00,,SKC,0.00,VWS V14.00,2013-04-10 01:05:00,
2013-04-09 21:10:00,70.2,46.0,28.97,NW,313,0.0,0.0,42,0.00,,SKC,0.00,VWS V14.00,2013-04-10 01:10:00,
2013-04-09 21:15:00,70.2,46.0,28.97,NW,313,0.0,0.0,42,0.00,,SKC,0.00,VWS V14.00,2013-04-10 01:15:00,
2013-04-09 21:20:00,70.2,46.0,29.00,NW,313,0.0,0.0,42,0.00,,SKC,0.00,VWS V14.00,2013-04-10 01:20:00,
2013-04-09 21:25:00,70.2,46.6,29.00,NW,313,0.0,0.0,43,0.00,,SKC,0.00,VWS V14.00,2013-04-10 01:25:00,
2013-04-09 21:31:00,70.2,46.0,29.00,NW,313,0.0,0.0,42,0.00,,SKC,0.00,VWS V14.00,2013-04-10 01:31:00,
2013-04-09 21:36:00,70.0,46.5,29.00,WSW,256,0.0,0.0,43,0.00,,SKC,0.00,VWS V14.00,2013-04-10 01:36:00,
2013-04-09 21:41:00,70.0,46.5,29.00,SW,236,0.0,0.0,43,0.00,,SKC,0.00,VWS V14.00,2013-04-10 01:41:00,
2013-04-09 21:46:00,69.8,46.3,29.00,SW,236,0.0,0.0,43,0.00,,SKC,0.00,VWS V14.00,2013-04-10 01:46:00,
2013-04-09 21:51:00,69.3,46.4,29.00,SW,236,0.0,0.0,44,0.00,,SKC,0.00,VWS V14.00,2013-04-10 01:51:00,
2013-04-09 21:56:00,68.9,46.1,29.00,SW,236,0.0,0.0,44,0.00,,SKC,0.00,VWS V14.00,2013-04-10 01:56:00,
2013-04-09 22:01:00,68.9,46.1,29.00,SSW,207,0.0,0.0,44,0.00,,SKC,0.00,VWS V14.00,2013-04-10 02:01:00,
2013-04-09 22:06:00,68.7,46.0,29.03,SSW,208,0.0,0.0,44,0.00,,SKC,0.00,VWS V14.00,2013-04-10 02:06:00,
2013-04-09 22:11:00,68.4,45.6,29.03,SW,223,0.0,0.0,44,0.00,,SKC,0.00,VWS V14.00,2013-04-10 02:11:00,
2013-04-09 22:16:00,68.0,45.9,29.03,SW,223,0.0,0.0,45,0.00,,SKC,0.00,VWS V14.00,2013-04-10 02:16:00,
2013-04-09 22:21:00,67.6,45.6,29.03,SW,223,0.0,0.0,45,0.00,,SKC,0.00,VWS V14.00,2013-04-10 02:21:00,
2013-04-09 22:26:00,67.5,45.4,29.03,SW,223,0.0,0.0,45,0.00,,SKC,0.00,VWS V14.00,2013-04-10 02:26:00,
2013-04-09 22:31:00,67.3,45.8,29.03,SSW,205,0.0,0.0,46,0.00,,SKC,0.00,VWS V14.00,2013-04-10 02:31:00,
2013-04-09 22:40:00,66.9,45.5,29.03,SSW,205,0.0,0.0,46,0.00,,SKC,0.00,VWS V14.00,2013-04-10 02:40:00,
2013-04-09 22:46:00,66.9,45.5,29.03,SSW,205,0.0,0.0,46,0.00,,SKC,0.00,VWS V14.00,2013-04-10 02:46:00,
2013-04-09 22:51:00,66.7,45.9,29.03,SSW,205,0.0,0.0,47,0.00,,SKC,0.00,VWS V14.00,2013-04-10 02:51:00,
2013-04-09 22:56:00,66.7,45.9,29.03,SSW,205,0.0,0.0,47,0.00,,SKC,0.00,VWS V14.00,2013-04-10 02:56:00,
2013-04-09 23:06:00,66.6,45.7,29.03,SSW,205,0.0,0.0,47,0.00,,SKC,0.00,VWS V14.00,2013-04-10 03:06:00,
2013-04-09 23:11:00,66.4,45.6,29.03,SSW,205,0.0,0.0,47,0.00,,SKC,0.00,VWS V14.00,2013-04-10 03:11:00,
2013-04-09 23:20:00,66.4,45.6,29.03,SSW,201,0.0,0.0,47,0.00,,SKC,0.00,VWS V14.00,2013-04-10 03:20:00,
2013-04-09 23:27:00,66.4,45.6,29.03,SSW,199,0.0,2.7,47,0.00,,SKC,0.00,VWS V14.00,2013-04-10 03:27:00,
2013-04-09 23:32:00,66.0,45.8,29.03,SSW,197,0.0,0.0,48,0.00,,SKC,0.00,VWS V14.00,2013-04-10 03:32:00,
2013-04-09 23:37:00,65.8,45.6,29.03,SSW,196,0.0,0.0,48,0.00,,SKC,0.00,VWS V14.00,2013-04-10 03:37:00,
2013-04-09 23:42:00,65.8,45.6,29.03,SSW,197,0.0,0.0,48,0.00,,SKC,0.00,VWS V14.00,2013-04-10 03:42:00,
2013-04-09 23:47:00,65.8,45.6,29.03,SSW,196,0.0,0.0,48,0.00,,SKC,0.00,VWS V14.00,2013-04-10 03:47:00,
2013-04-09 23:52:00,65.7,45.5,29.03,SSW,196,0.0,0.0,48,0.00,,SKC,0.00,VWS V14.00,2013-04-10 03:52:00,
2013-04-09 23:57:00,65.5,45.8,29.03,SSW,197,0.0,0.0,49,0.00,,SKC,0.00,VWS V14.00,2013-04-10 03:57:00,